Weather History for KMWM - October, 2014

Change the Weather History Date:

Sunday, October 26, 2014

  Actual Average Record
Temperature  
Mean Temperature 48 °F -  
Max Temperature 64 °F 57 °F 83 °F (1955)
Min Temperature 33 °F 34 °F 17 °F (1988)
Degree Days  
Heating Degree Days 16    
Moisture  
Dew Point 32 °F    
Average Humidity 52    
Maximum Humidity 81    
Minimum Humidity 24    
Precipitation  
Precipitation 0.00 in - - ()
Sea Level Pressure  
Sea Level Pressure 29.81 in    
Wind  
Wind Speed 7 mph (SE)    
Max Wind Speed 24 mph    
Max Gust Speed 30 mph    
Visibility 10 miles    
Events      
Averages and records for this station are not official NWS values.
T = Trace of Precipitation, MM = Missing Value Source: NWS Daily Summary

Daily Weather History Graph

Daily Weather History Graph

Search for Another Location

Airport or City:

Trip Planner

Search our weather history database for the weather conditions in past years. The results will help you decide how hot, cold, wet, or windy it might be!

Date:

Astronomy

Oct. 26, 2014 Rise Set
Actual Time 7:48 AM CDT 6:19 PM CDT
Civil Twilight 7:19 AM CDT 6:48 PM CDT
Nautical Twilight 6:45 AM CDT 7:22 PM CDT
Astronomical Twilight 6:12 AM CDT 7:55 PM CDT
Moon 10:31 AM CDT (10/26) 8:27 PM CDT (10/26)
Length of Visible Light 11h 29m
Length of Day
10h 30m
Waxing Crescent, 8% of the Moon is Illuminated
Oct 26
Waxing Crescent
Oct 30
First Quarter
Nov 6
Full
Nov 14
Last Quarter
Nov 22
New

Hourly Weather History & Observations

Time (CDT) Temp. Windchill Dew Point Humidity Pressure Visibility Wind Dir Wind Speed Gust Speed Precip Events Conditions
12:14 AM 37.4 °F - 32.0 °F 81% 30.05 in 10.0 mi Calm Calm - N/A   Clear
12:34 AM 37.4 °F - 30.2 °F 75% 30.06 in 10.0 mi Calm Calm - N/A   Clear
12:53 AM 33.8 °F - 28.4 °F 81% 30.05 in 10.0 mi Calm Calm - N/A   Clear
1:14 AM 35.6 °F - 30.2 °F 81% 30.05 in 10.0 mi Calm Calm - N/A   Clear
1:34 AM 35.6 °F - 28.4 °F 75% 30.05 in 10.0 mi Calm Calm - N/A   Clear
1:53 AM 35.6 °F - 30.2 °F 81% 30.05 in 10.0 mi Calm Calm - N/A   Clear
2:14 AM 35.6 °F - 30.2 °F 81% 30.04 in 10.0 mi Calm Calm - N/A   Clear
2:33 AM 35.6 °F - 30.2 °F 81% 30.03 in 10.0 mi Calm Calm - N/A   Clear
2:53 AM 35.6 °F - 30.2 °F 81% 30.03 in 10.0 mi Calm Calm - N/A   Clear
3:14 AM 37.4 °F - 32.0 °F 81% 30.02 in 10.0 mi Calm Calm - N/A   Clear
3:33 AM 35.6 °F - 30.2 °F 81% 30.01 in 10.0 mi Calm Calm - N/A   Clear
3:53 AM 35.6 °F - 30.2 °F 81% 30.01 in 10.0 mi Calm Calm - N/A   Clear
4:13 AM 39.2 °F - 30.2 °F 70% 29.99 in 10.0 mi Calm Calm - N/A   Clear
4:33 AM 39.2 °F - 30.2 °F 70% 29.98 in 10.0 mi Calm Calm - N/A   Clear
4:54 AM 39.2 °F - 30.2 °F 70% 29.98 in 10.0 mi Calm Calm - N/A   Clear
5:13 AM 41.0 °F 36.4 °F 30.2 °F 65% 29.98 in 10.0 mi ESE 6.9 mph - N/A   Clear
5:33 AM 41.0 °F 35.8 °F 28.4 °F 61% 29.97 in 10.0 mi ESE 8.1 mph - N/A   Clear
5:54 AM 41.0 °F 36.4 °F 28.4 °F 61% 29.97 in 10.0 mi ESE 6.9 mph - N/A   Clear
6:13 AM 42.8 °F 38.0 °F 28.4 °F 57% 29.97 in 10.0 mi ESE 8.1 mph - N/A   Clear
6:33 AM 41.0 °F 37.1 °F 30.2 °F 65% 29.96 in 10.0 mi ESE 5.8 mph - N/A   Clear
6:54 AM 41.0 °F 37.1 °F 30.2 °F 65% 29.96 in 10.0 mi ESE 5.8 mph - N/A   Clear
7:13 AM 39.2 °F 34.2 °F 30.2 °F 70% 29.95 in 10.0 mi East 6.9 mph - N/A   Clear
7:33 AM 44.6 °F 39.7 °F 28.4 °F 53% 29.94 in 10.0 mi East 9.2 mph - N/A   Clear
7:54 AM 41.0 °F 34.7 °F 28.4 °F 61% 29.93 in 10.0 mi ESE 10.4 mph - N/A   Clear
8:13 AM 44.6 °F 39.7 °F 28.4 °F 53% 29.93 in 10.0 mi ESE 9.2 mph 16.1 mph N/A   Clear
8:33 AM 44.6 °F 39.7 °F 28.4 °F 53% 29.94 in 10.0 mi ESE 9.2 mph - N/A   Scattered Clouds
8:54 AM 46.4 °F 40.1 °F 28.4 °F 50% 29.92 in 10.0 mi ESE 15.0 mph - N/A   Overcast
9:13 AM 48.2 °F - 28.4 °F 46% 29.92 in 10.0 mi ESE 12.7 mph - N/A   Overcast
9:33 AM 50.0 °F - 28.4 °F 43% 29.91 in 10.0 mi ESE 13.8 mph 18.4 mph N/A   Overcast
9:54 AM 51.8 °F - 28.4 °F 41% 29.90 in 10.0 mi SE 15.0 mph 23.0 mph N/A   Overcast
10:13 AM 51.8 °F - 28.4 °F 41% 29.90 in 10.0 mi SE 15.0 mph 25.3 mph N/A   Overcast
10:33 AM 53.6 °F - 26.6 °F 35% 29.88 in 10.0 mi ESE 17.3 mph 24.2 mph N/A   Mostly Cloudy
10:54 AM 55.4 °F - 26.6 °F 33% 29.87 in 10.0 mi SE 15.0 mph 23.0 mph N/A   Mostly Cloudy
11:13 AM 55.4 °F - 26.6 °F 33% 29.85 in 10.0 mi SE 17.3 mph 27.6 mph N/A   Mostly Cloudy
11:33 AM 55.4 °F - 28.4 °F 36% 29.84 in 10.0 mi SE 19.6 mph 24.2 mph N/A   Overcast
11:54 AM 55.4 °F - 26.6 °F 33% 29.83 in 10.0 mi SE 17.3 mph 25.3 mph N/A   Overcast
12:13 PM 57.2 °F - 26.6 °F 31% 29.82 in 10.0 mi SE 15.0 mph 24.2 mph N/A   Overcast
12:33 PM 57.2 °F - 26.6 °F 31% 29.80 in 10.0 mi SE 18.4 mph 24.2 mph N/A   Overcast
12:53 PM 57.2 °F - 24.8 °F 29% 29.78 in 10.0 mi SE 21.9 mph 25.3 mph N/A   Overcast
1:13 PM 60.8 °F - 24.8 °F 25% 29.76 in 10.0 mi SE 17.3 mph 26.5 mph N/A   Overcast
1:34 PM 60.8 °F - 24.8 °F 25% 29.75 in 10.0 mi SE 18.4 mph 28.8 mph N/A   Scattered Clouds
1:53 PM 62.6 °F - 24.8 °F 24% 29.74 in 10.0 mi ESE 24.2 mph 27.6 mph N/A   Clear
2:13 PM 62.6 °F - 26.6 °F 26% 29.72 in 10.0 mi SE 23.0 mph 26.5 mph N/A   Clear
2:34 PM 64.4 °F - 28.4 °F 26% 29.71 in 10.0 mi SE 18.4 mph 29.9 mph N/A   Clear
2:53 PM 64.4 °F - 28.4 °F 26% 29.70 in 10.0 mi SE 21.9 mph 26.5 mph N/A   Clear
3:13 PM 64.4 °F - 30.2 °F 28% 29.69 in 10.0 mi SE 20.7 mph 25.3 mph N/A   Clear
3:34 PM 64.4 °F - 32.0 °F 30% 29.66 in 10.0 mi SE 18.4 mph 29.9 mph N/A   Clear
3:53 PM 62.6 °F - 32.0 °F 32% 29.65 in 10.0 mi SE 20.7 mph 26.5 mph N/A   Clear
4:13 PM 62.6 °F - 33.8 °F 34% 29.66 in 10.0 mi SE 16.1 mph - N/A   Clear
4:34 PM 62.6 °F - 33.8 °F 34% 29.65 in 10.0 mi SE 17.3 mph 23.0 mph N/A   Clear
4:53 PM 62.6 °F - 33.8 °F 34% 29.65 in 10.0 mi SE 16.1 mph 23.0 mph N/A   Clear
5:13 PM 62.6 °F - 33.8 °F 34% 29.65 in 10.0 mi SE 13.8 mph - N/A   Clear
5:33 PM 60.8 °F - 35.6 °F 39% 29.62 in 10.0 mi SE 16.1 mph 21.9 mph N/A   Clear
5:53 PM 60.8 °F - 35.6 °F 39% 29.63 in 10.0 mi SE 12.7 mph 17.3 mph N/A   Clear
6:14 PM 60.8 °F - 35.6 °F 39% 29.62 in 10.0 mi SE 12.7 mph - N/A   Clear
6:33 PM 59.0 °F - 35.6 °F 42% 29.63 in 10.0 mi SE 12.7 mph 18.4 mph N/A   Clear
6:53 PM 59.0 °F - 35.6 °F 42% 29.64 in 10.0 mi SE 6.9 mph - N/A   Clear
7:14 PM 57.2 °F - 37.4 °F 48% 29.63 in 10.0 mi SE 10.4 mph - N/A   Clear
7:33 PM 57.2 °F - 37.4 °F 48% 29.62 in 10.0 mi SE 5.8 mph - N/A   Clear
7:53 PM 57.2 °F - 37.4 °F 48% 29.63 in 10.0 mi SE 8.1 mph - N/A   Clear
8:14 PM 57.2 °F - 37.4 °F 48% 29.62 in 10.0 mi SE 11.5 mph - N/A   Clear
8:33 PM 57.2 °F - 39.2 °F 51% 29.62 in 10.0 mi SE 8.1 mph - N/A   Clear
8:53 PM 57.2 °F - 39.2 °F 51% 29.62 in 10.0 mi SE 8.1 mph - N/A   Clear
9:14 PM 55.4 °F - 39.2 °F 54% 29.61 in 10.0 mi SE 9.2 mph - N/A   Clear
9:33 PM 55.4 °F - 39.2 °F 54% 29.61 in 10.0 mi SE 6.9 mph - N/A   Clear
9:53 PM 55.4 °F - 39.2 °F 54% 29.61 in 10.0 mi SSE 5.8 mph - N/A   Clear
10:13 PM 53.6 °F - 39.2 °F 58% 29.60 in 10.0 mi SSE 4.6 mph - N/A   Clear
10:34 PM 53.6 °F - 41.0 °F 62% 29.60 in 10.0 mi SSE 4.6 mph - N/A   Clear
10:53 PM 51.8 °F - 41.0 °F 67% 29.59 in 10.0 mi Calm Calm - N/A   Clear
11:13 PM 51.8 °F - 41.0 °F 67% 29.58 in 10.0 mi Calm Calm - N/A   Clear
11:34 PM 50.0 °F - 41.0 °F 71% 29.58 in 10.0 mi Calm Calm - N/A   Clear
11:53 PM 51.8 °F - 41.0 °F 67% 29.58 in 10.0 mi Calm Calm - N/A   Clear